Accueil
METAR-TAF:

METAR-TAF

Aéroports :

Passo della Cisa, Italie

latitude: 44-26N, longitude: 009-56E, altitude: 1039 m

Observation

Le bulletin a été fait il y a 41 minutes, à 05:55 UTC
Vent 6 kt de sud/sud-ouest
Température 18°C
Humidité 64%
Pression 1022 hPa
Visibilité 10 km ou plus
pas de nuages en-dessous de 1500 mètres et pas de cumulonimbus.

METAR: LIMT 240555Z 20006KT CAVOK 18/11 Q1022 RMK SCT SCT140 MON LIB VAL NIL VIS MIN 9999

Heure: 08:36 (06:36 UTC)


TAF: absent

Observations et prévisions météorologiques de plus de 4000 aéroports (messages METAR et TAF).

Les stations disponibles sont représentées par des disques jaunes et rouges sur la carte.

Passer la souris dessus pour voir le nom de la station.

Cliquer dessus pour voir les observations et prévisions météorologiques.

Pour changer de carte: cliquez sur les boutons verts avec une croix noire pour zoomer, sur le bouton vert avec un tiret pour effectuer un zoom arrière, ou sur les flèches vertes pour les cartes adjacentes.


METAR-TAF: